Wetbulb
57.25 57.11 56.93 56.53 56.26 56.38 56.49 56.37 56.23 56.19 56.17 55.96 55.90 55.76 55.89 55.52 53.61 46.52 43.13 47.97 52.42 55.44 55.28 51.28 48.75 49.13 50.09 50.98 52.71 51.74 46.35 43.21 44.66 45.05 46.97 46.16 46.26 45.21 44.23 45.37 45.13 45.82 49.66 48.20 46.23
57.44 56.94 56.89 56.90 56.51 56.14 56.36 56.40 56.19 55.94 56.04 55.93 55.76 55.62 55.49 55.03 48.61 43.00 48.55 53.32 54.50 55.02 50.30 46.73 44.84 48.05 49.27 49.47 51.05 50.38 45.11 44.46 46.67 47.04 46.04 44.99 43.98 44.36 43.54 43.03 43.14 42.82 45.53 45.07 45.91
57.66 57.35 56.83 56.74 56.95 56.59 56.36 56.20 56.04 55.71 55.79 55.54 55.50 55.57 55.16 52.58 44.59 42.33 50.34 53.32 53.89 54.45 50.39 48.20 47.72 47.51 47.31 49.08 48.59 47.49 44.16 45.46 44.75 44.78 43.60 42.97 42.14 42.41 42.24 43.45 45.44 42.49 42.47 43.75 44.50
57.85 57.53 57.22 56.70 56.78 57.11 56.82 56.49 56.00 55.63 55.42 55.46 55.24 55.27 55.31 46.62 35.90 44.00 51.39 52.10 52.39 52.20 49.33 47.37 46.44 44.68 44.99 45.53 46.48 42.56 44.50 43.42 42.21 42.66 41.08 40.88 40.93 40.40 40.58 42.95 41.65 42.61 42.94 43.07 43.56
58.43 57.75 57.21 56.93 56.81 57.10 57.21 56.81 56.28 55.72 55.36 55.37 55.20 54.96 48.29 40.41 39.96 46.41 49.24 48.81 49.38 49.50 46.74 45.73 44.26 43.94 41.46 44.16 43.10 43.37 41.49 41.03 40.45 39.98 40.12 39.74 40.08 39.84 40.01 42.83 42.91 42.13 41.72 42.90 42.53
58.64 58.13 57.61 57.10 57.15 57.38 57.32 57.19 55.97 55.74 55.40 55.33 55.37 54.02 44.11 37.91 45.54 46.51 46.85 47.11 47.02 47.55 45.94 46.19 45.10 44.97 42.33 41.36 41.79 42.91 40.30 39.45 39.07 38.80 38.55 37.49 38.80 38.12 40.25 40.70 40.71 41.34 42.37 42.68 42.51
56.06 57.11 57.86 57.67 57.54 57.53 57.32 56.88 55.63 55.07 55.29 55.48 55.02 49.80 40.64 40.42 46.06 46.64 47.27 45.84 46.13 46.83 45.42 46.22 45.81 43.19 42.30 39.33 39.96 39.39 37.39 37.49 37.42 37.88 37.56 36.93 36.12 35.53 41.16 39.77 40.13 40.63 41.33 42.35 42.98
54.89 55.50 55.71 57.23 57.83 57.63 57.48 56.88 55.34 54.46 54.34 55.09 54.45 46.54 39.54 45.02 46.59 45.59 46.59 45.57 46.83 46.96 46.28 46.71 46.42 43.09 40.97 40.42 37.71 36.68 36.45 34.63 35.57 36.20 36.76 36.42 36.10 36.49 38.94 39.38 39.96 39.59 40.47 41.67 41.90
53.98 54.07 54.39 55.23 57.15 57.29 57.14 54.94 53.80 53.41 53.64 54.24 45.92 42.01 38.04 47.56 42.98 44.66 46.30 43.28 45.13 45.85 45.97 44.19 43.31 40.39 39.74 37.17 35.11 34.63 34.38 33.20 32.89 34.83 34.55 35.08 36.04 36.93 38.58 38.59 39.53 40.68 40.50 41.46 42.54
53.22 53.58 53.78 54.52 56.01 57.08 55.28 51.77 52.83 50.99 48.56 45.70 43.40 38.93 39.85 39.26 42.80 43.39 45.26 45.35 43.44 43.16 42.40 41.55 39.44 37.50 36.83 36.07 33.04 33.86 32.57 31.50 32.94 32.68 33.17 33.54 33.97 37.67 38.36 37.79 39.07 39.71 40.30 41.34 43.07
51.84 52.49 52.86 53.62 55.81 56.58 50.09 47.52 44.45 43.30 43.24 39.67 39.10 37.85 39.44 41.66 43.98 41.24 43.27 43.46 42.18 40.11 36.79 37.71 35.48 32.99 35.64 37.10 33.49 33.29 32.45 31.88 32.06 32.01 31.13 33.39 33.19 35.85 38.24 37.44 36.57 38.51 40.07 41.05 43.07
50.15 50.89 51.39 51.85 53.24 54.44 48.54 43.15 41.04 41.73 37.06 41.05 40.01 40.14 41.13 42.86 38.08 39.21 43.78 39.18 38.11 35.16 35.85 34.19 32.19 34.69 35.07 34.22 33.48 32.57 31.40 31.68 31.47 31.06 31.15 32.67 33.31 38.05 37.32 37.34 38.32 39.53 40.42 41.05 43.15
48.71 49.55 50.25 50.86 52.19 49.08 44.09 43.55 48.05 45.32 37.01 38.55 39.71 39.10 39.62 41.41 37.70 37.43 41.05 39.22 36.14 34.33 34.57 34.44 32.77 34.38 33.40 32.30 31.65 30.92 30.91 29.74 29.78 31.61 31.76 32.01 35.14 34.52 36.69 37.42 38.32 39.74 41.73 42.22 42.96
47.15 48.04 48.90 49.86 50.23 46.31 43.99 46.47 47.47 46.26 37.26 37.45 35.73 38.32 39.81 40.27 35.77 40.29 41.07 38.52 34.77 33.79 34.03 33.61 33.13 32.20 32.07 31.51 32.36 29.01 30.90 30.39 29.07 30.98 30.64 32.48 31.33 35.45 34.83 36.40 37.79 38.67 40.34 41.56 41.18
46.07 46.50 47.54 48.42 46.48 44.36 43.90 46.91 46.94 44.71 28.47 35.88 34.54 42.25 39.94 36.56 36.44 36.63 40.54 38.30 33.30 32.03 32.54 32.14 30.56 30.49 30.31 30.94 31.63 29.42 31.54 30.51 30.06 29.93 28.19 28.95 29.07 35.76 32.72 34.85 37.36 39.44 40.54 41.67 41.51
46.03 45.99 46.59 46.12 47.31 47.26 46.34 46.69 45.83 34.86 28.18 33.57 34.63 34.41 34.33 35.77 35.39 37.18 36.64 38.57 36.64 32.56 32.25 29.38 32.81 32.42 31.89 30.88 31.11 32.35 29.99 29.61 29.51 29.36 27.25 26.79 28.08 34.39 34.22 35.36 35.96 38.97 40.66 41.42 41.16
46.84 46.22 44.43 46.04 44.43 46.67 46.47 46.40 33.07 30.22 36.59 34.00 30.77 33.60 32.95 32.15 32.69 34.45 32.50 31.41 30.75 27.98 27.57 28.28 29.14 31.50 32.20 29.75 31.55 29.98 28.07 31.98 28.13 25.86 29.63 25.64 25.58 33.51 35.30 34.85 37.11 37.97 39.27 41.06 41.33
46.80 45.97 43.70 44.53 48.42 47.02 47.11 37.02 27.83 32.85 33.25 32.29 31.99 32.34 30.40 32.23 31.97 32.33 31.03 30.38 31.60 31.46 27.88 27.17 25.76 29.12 31.66 30.03 29.78 28.49 28.96 33.06 25.15 25.33 26.26 23.57 24.53 33.31 34.62 35.22 36.15 36.24 37.96 39.65 39.23
45.73 43.52 41.78 46.65 47.63 46.45 40.73 30.28 32.46 33.37 35.97 31.23 30.67 32.63 30.61 30.54 31.49 30.77 30.87 30.74 31.58 30.99 30.53 26.58 26.16 28.85 29.56 31.51 31.30 27.22 25.62 27.53 21.09 13.10 21.96 28.00 29.53 33.66 34.25 34.15 35.00 35.51 36.86 37.97 38.40
39.64 39.22 38.84 45.95 46.78 43.82 33.88 32.49 34.60 37.76 34.93 32.86 33.43 33.06 29.54 28.50 32.54 31.34 30.59 32.69 31.29 31.43 32.28 31.59 24.40 26.60 29.06 31.26 30.58 28.83 28.62 24.99 25.70 22.61 21.55 25.94 23.25 29.48 32.21 33.82 34.73 33.94 36.11 38.06 38.83
39.44 33.08 41.25 44.51 44.42 38.51 29.53 32.69 35.66 39.66 36.52 34.25 34.43 30.70 33.73 28.77 30.06 30.75 32.45 31.89 32.27 29.60 31.19 30.50 29.81 23.17 27.61 26.24 26.71 25.13 26.06 23.98 26.74 25.24 26.48 24.38 29.95 33.21 35.32 35.54 35.38 36.64 37.15 38.29 38.69
36.07 27.96 42.21 43.43 33.21 32.32 30.64 34.56 38.39 36.62 36.00 35.69 36.02 32.59 32.28 30.77 29.55 29.72 31.26 31.54 33.20 31.94 28.83 30.40 29.52 23.24 24.68 27.19 28.96 28.76 27.98 28.01 30.93 22.39 21.28 22.09 26.72 32.76 35.41 34.88 34.12 35.18 35.24 36.76 37.64
30.57 31.35 40.96 41.29 26.80 28.62 32.83 33.14 35.67 35.48 33.74 33.59 33.83 36.66 35.85 33.54 32.31 29.71 30.29 32.04 32.59 30.77 29.51 29.98 27.69 21.99 22.29 25.29 26.29 25.34 27.19 26.01 22.00 25.27 19.18 25.61 31.52 32.29 32.53 32.71 33.88 33.98 36.32 36.42 35.96
30.81 25.68 31.33 34.52 33.19 29.93 30.40 29.93 30.50 35.80 35.74 34.75 34.24 35.07 33.42 32.41 33.85 32.08 30.91 30.87 31.86 31.21 33.28 31.27 27.24 26.56 27.08 27.92 27.23 22.85 25.29 25.61 26.21 23.86 24.11 25.48 31.29 33.98 35.13 32.29 34.60 34.70 35.74 36.39 35.29
31.15 26.56 29.05 24.12 28.43 29.04 29.17 29.27 29.03 28.99 33.85 35.46 33.70 34.21 33.44 30.66 30.56 29.38 31.19 29.54 30.93 32.20 30.27 29.30 26.01 22.80 24.97 26.08 25.84 26.21 25.02 24.18 22.04 26.66 27.33 31.57 25.05 31.90 34.58 34.78 34.64 35.22 32.73 32.04 32.38
28.02 26.59 30.17 27.87 27.10 25.36 26.12 24.51 24.84 27.32 31.51 30.39 32.06 32.88 33.63 33.22 33.12 29.98 31.34 30.51 30.55 30.57 28.95 28.66 23.97 23.15 24.03 23.96 23.54 22.32 25.82 25.46 24.97 27.24 23.49 26.46 25.48 35.29 36.92 37.12 34.17 33.51 32.94 32.46 32.19
34.61 33.97 28.87 24.90 24.10 22.72 22.74 23.89 24.39 26.85 29.13 33.59 29.39 31.28 32.16 34.62 36.31 33.92 35.48 34.53 33.57 29.61 26.74 27.04 27.43 25.90 25.82 22.11 23.92 24.24 24.44 25.28 26.21 27.02 27.55 24.48 30.74 34.86 33.66 33.80 33.81 34.11 33.03 32.90 33.84
MSLP
1019.73 1019.42 1019.13 1018.96 1018.63 1018.22 1017.99 1017.70 1017.42 1017.17 1016.77 1016.37 1016.08 1015.88 1015.69 1015.36 1014.94 1014.67 1014.47 1014.69 1014.58 1014.50 1014.51 1014.24 1014.21 1013.87 1013.57 1013.20 1013.16 1012.94 1012.16 1011.33 1011.43 1011.63 1011.46 1012.39 1012.36 1012.75 1013.01 1012.54 1012.55 1012.58 1012.62 1013.26 1013.80
1019.78 1019.51 1019.06 1018.77 1018.56 1018.12 1017.85 1017.61 1017.42 1016.91 1016.59 1016.26 1016.03 1015.83 1015.57 1015.26 1014.94 1014.42 1014.51 1014.44 1014.39 1014.40 1014.27 1013.85 1013.66 1013.59 1013.18 1013.12 1013.03 1012.53 1012.08 1011.72 1012.18 1012.30 1012.40 1012.86 1012.98 1012.94 1012.95 1012.72 1012.58 1012.85 1013.37 1013.82 1013.92
1019.59 1019.47 1019.11 1018.61 1018.30 1018.01 1017.70 1017.48 1017.18 1016.72 1016.45 1016.14 1015.90 1015.71 1015.50 1015.19 1014.72 1014.08 1014.29 1014.27 1014.28 1014.22 1014.05 1013.83 1013.61 1013.33 1013.14 1013.10 1013.17 1012.99 1012.27 1012.69 1012.95 1013.24 1013.42 1013.42 1013.40 1013.39 1012.96 1012.45 1012.29 1012.73 1013.36 1013.81 1013.94
1019.55 1019.23 1019.00 1018.59 1018.24 1017.82 1017.52 1017.15 1016.87 1016.59 1016.27 1015.95 1015.70 1015.52 1015.37 1015.13 1014.79 1014.17 1014.24 1014.20 1014.05 1013.95 1013.97 1013.74 1013.56 1013.19 1013.11 1012.98 1013.29 1013.32 1013.40 1013.49 1013.77 1014.00 1014.11 1013.98 1013.96 1013.50 1013.27 1012.68 1013.25 1013.59 1013.91 1014.01 1013.88
1019.40 1019.06 1018.79 1018.48 1018.05 1017.63 1017.11 1016.86 1016.49 1016.17 1015.94 1015.71 1015.51 1015.36 1015.37 1014.97 1014.17 1014.17 1014.23 1014.09 1013.98 1013.94 1013.83 1013.57 1013.37 1013.28 1013.08 1013.18 1013.62 1013.50 1013.69 1014.10 1014.42 1014.61 1014.57 1014.67 1014.11 1013.84 1013.07 1013.07 1013.50 1013.86 1014.12 1013.99 1014.05
1019.29 1018.96 1018.64 1018.32 1017.84 1017.36 1016.81 1016.40 1015.87 1015.64 1015.45 1015.39 1015.35 1015.23 1015.23 1014.77 1014.07 1014.14 1014.14 1014.06 1013.96 1013.95 1013.99 1013.72 1013.52 1013.61 1013.65 1013.64 1013.62 1013.58 1014.02 1014.38 1014.74 1014.81 1014.94 1014.81 1014.21 1014.20 1012.94 1013.39 1013.41 1013.76 1013.82 1014.01 1014.13
1019.44 1018.98 1018.53 1018.14 1017.61 1017.03 1016.49 1015.97 1015.44 1015.08 1014.87 1014.91 1015.04 1015.11 1014.93 1014.39 1014.05 1014.19 1013.96 1014.09 1014.07 1013.94 1013.87 1014.10 1013.98 1014.00 1014.13 1014.16 1014.48 1014.28 1014.24 1014.52 1014.68 1014.96 1014.99 1015.09 1013.99 1013.21 1012.84 1013.46 1013.32 1013.46 1013.60 1013.83 1014.02
1019.63 1019.00 1018.69 1018.07 1017.52 1016.86 1016.07 1015.53 1014.98 1014.52 1014.31 1014.57 1014.87 1015.00 1014.28 1014.11 1014.13 1014.15 1014.11 1014.14 1014.16 1014.05 1014.09 1014.34 1014.28 1014.36 1014.54 1014.82 1014.52 1014.20 1014.12 1013.89 1014.52 1014.94 1015.13 1014.98 1012.52 1012.65 1013.10 1013.25 1012.97 1013.13 1013.24 1013.65 1013.97
1019.77 1018.96 1018.67 1018.15 1017.45 1016.79 1015.80 1015.15 1014.62 1014.37 1014.30 1014.67 1014.99 1014.92 1014.22 1014.22 1014.24 1014.16 1014.21 1014.04 1014.09 1014.20 1014.42 1014.44 1014.48 1014.76 1015.07 1014.41 1014.02 1013.85 1012.81 1013.38 1014.27 1015.13 1015.04 1014.69 1012.59 1012.43 1013.01 1013.11 1012.69 1012.56 1012.83 1013.33 1013.87
1019.84 1019.18 1018.68 1018.29 1017.50 1016.74 1015.68 1014.90 1014.52 1014.47 1014.63 1014.71 1014.73 1015.07 1014.50 1014.04 1014.02 1014.14 1014.26 1014.25 1014.03 1014.18 1014.41 1014.45 1014.64 1014.62 1014.57 1013.87 1012.68 1012.36 1012.69 1013.31 1013.74 1015.05 1015.01 1014.19 1012.46 1012.09 1012.39 1012.61 1012.19 1012.11 1012.53 1013.01 1013.49
1019.97 1019.27 1018.83 1018.34 1017.55 1016.76 1015.90 1014.81 1014.94 1015.00 1014.75 1014.26 1014.03 1013.88 1013.90 1014.21 1014.27 1014.25 1014.29 1014.21 1014.10 1014.11 1014.03 1014.52 1014.49 1013.69 1013.28 1013.31 1013.15 1012.74 1012.80 1013.15 1014.10 1015.11 1014.94 1013.38 1012.19 1011.39 1011.42 1011.66 1011.76 1011.64 1012.10 1012.49 1013.12
1020.15 1019.53 1019.05 1018.39 1017.65 1016.85 1016.53 1016.08 1016.77 1017.05 1015.36 1014.00 1013.98 1013.91 1013.85 1013.99 1014.17 1014.11 1014.36 1014.14 1014.09 1013.89 1014.30 1014.68 1014.03 1013.96 1014.11 1014.04 1013.69 1013.40 1013.36 1013.63 1014.47 1015.15 1014.94 1013.38 1011.32 1010.38 1010.75 1010.85 1011.02 1011.01 1011.32 1012.01 1012.88
1020.36 1019.80 1019.24 1018.50 1017.53 1016.99 1017.19 1017.03 1017.15 1017.30 1016.03 1013.94 1013.74 1013.64 1013.85 1014.04 1013.70 1013.82 1014.11 1013.83 1013.77 1013.95 1013.92 1013.86 1014.40 1014.62 1014.51 1014.57 1014.23 1014.13 1014.04 1014.33 1014.82 1014.88 1014.92 1013.75 1010.92 1010.00 1010.33 1010.64 1010.96 1010.86 1011.10 1011.88 1012.42
1020.48 1019.93 1019.35 1018.62 1017.50 1017.61 1017.24 1017.29 1017.33 1017.20 1016.06 1013.94 1013.70 1013.58 1013.76 1013.75 1013.99 1014.00 1014.01 1013.90 1014.02 1013.85 1014.14 1014.37 1015.04 1015.00 1014.99 1014.90 1014.88 1014.99 1015.15 1015.20 1015.25 1014.96 1014.51 1014.15 1011.64 1009.51 1009.70 1010.03 1010.45 1010.69 1011.19 1011.77 1012.49
1020.37 1019.92 1019.47 1019.02 1018.39 1017.84 1017.60 1017.21 1017.36 1017.16 1015.88 1013.71 1013.61 1013.89 1013.64 1013.81 1014.08 1014.16 1014.25 1013.92 1013.89 1014.10 1014.60 1014.60 1014.98 1015.31 1015.46 1015.57 1015.57 1015.86 1016.10 1015.88 1015.79 1015.42 1015.22 1014.17 1013.22 1009.05 1009.59 1009.22 1009.36 1009.93 1010.79 1011.49 1012.28
1020.28 1019.88 1019.40 1018.71 1018.40 1017.70 1017.64 1017.40 1017.34 1017.21 1014.66 1013.64 1013.57 1013.64 1013.69 1013.58 1013.72 1014.00 1013.93 1014.06 1014.34 1014.45 1014.66 1015.17 1015.65 1015.62 1015.87 1016.41 1016.44 1016.64 1016.55 1016.39 1016.11 1015.59 1014.97 1013.91 1013.10 1008.95 1008.43 1008.34 1008.80 1009.56 1010.39 1011.16 1012.05
1020.16 1019.76 1019.37 1019.08 1018.05 1017.70 1017.62 1017.48 1017.45 1015.92 1013.72 1013.67 1013.50 1013.52 1013.48 1013.58 1013.63 1013.55 1013.69 1013.99 1013.97 1014.32 1014.54 1015.42 1015.57 1016.16 1016.17 1016.64 1017.25 1016.96 1016.56 1016.30 1016.17 1015.61 1014.45 1014.18 1013.27 1009.07 1008.53 1008.75 1009.05 1009.60 1010.06 1010.78 1011.73
1020.09 1019.44 1018.86 1018.44 1017.91 1017.80 1017.68 1017.69 1016.21 1013.92 1013.56 1013.59 1013.49 1013.41 1013.44 1013.62 1013.63 1013.56 1013.44 1013.49 1013.67 1013.71 1013.66 1014.41 1015.68 1015.93 1016.22 1016.33 1016.26 1016.79 1016.54 1015.78 1015.40 1015.40 1014.48 1014.22 1011.77 1008.60 1008.71 1009.07 1009.53 1010.11 1010.36 1010.79 1011.59
1019.99 1019.20 1018.46 1017.42 1017.70 1017.85 1017.77 1016.56 1013.81 1013.09 1012.85 1013.27 1013.77 1013.59 1013.66 1013.82 1013.90 1013.78 1013.45 1012.94 1012.82 1013.56 1013.26 1013.92 1015.05 1016.23 1016.66 1016.81 1017.00 1017.12 1017.04 1016.37 1015.98 1017.15 1015.06 1012.22 1010.57 1008.68 1008.60 1008.81 1009.35 1009.81 1010.21 1010.72 1011.32
1020.26 1019.34 1018.13 1017.73 1017.68 1017.58 1016.99 1014.69 1013.33 1012.62 1012.71 1012.92 1012.96 1013.28 1013.50 1013.93 1013.88 1013.51 1012.93 1012.66 1012.86 1013.13 1013.11 1013.34 1014.81 1016.35 1016.95 1017.24 1017.38 1016.85 1017.06 1016.75 1016.01 1015.39 1014.05 1011.89 1010.61 1008.51 1008.13 1008.23 1008.82 1009.39 1009.81 1010.35 1011.09
1020.17 1019.47 1017.96 1017.90 1017.84 1017.32 1015.34 1013.78 1012.79 1012.45 1012.56 1012.80 1012.71 1013.24 1013.49 1013.59 1013.48 1013.42 1013.08 1012.78 1012.61 1013.54 1013.49 1013.55 1014.13 1016.65 1016.89 1016.36 1015.87 1017.08 1016.80 1016.41 1015.71 1014.76 1013.48 1011.94 1009.19 1007.44 1007.33 1007.74 1008.56 1008.99 1009.53 1010.12 1010.75
1020.75 1019.70 1018.10 1018.10 1018.00 1016.46 1014.64 1013.68 1013.20 1012.67 1012.70 1012.60 1012.72 1013.00 1013.23 1013.34 1013.39 1013.44 1012.93 1012.80 1013.05 1013.40 1013.78 1013.76 1014.25 1015.15 1015.52 1015.84 1015.80 1015.80 1015.51 1015.13 1014.89 1015.02 1014.20 1012.63 1009.11 1007.45 1007.54 1008.05 1008.71 1009.24 1009.78 1010.21 1010.72
1020.76 1019.53 1018.25 1018.25 1017.42 1016.18 1015.09 1014.19 1013.66 1013.03 1012.93 1012.72 1012.66 1012.72 1012.83 1013.42 1013.61 1013.31 1013.33 1013.72 1013.62 1013.72 1013.79 1013.97 1014.24 1014.98 1015.57 1016.03 1015.96 1015.57 1015.04 1014.84 1014.76 1014.35 1013.57 1012.14 1008.88 1007.93 1008.29 1008.75 1009.18 1009.57 1009.81 1010.28 1010.81
1021.21 1019.60 1018.59 1018.25 1017.71 1016.86 1015.56 1014.49 1014.05 1013.36 1013.15 1013.19 1012.71 1012.93 1013.13 1013.08 1013.46 1013.50 1013.83 1014.51 1014.38 1014.14 1014.18 1014.20 1014.11 1014.13 1013.68 1013.47 1013.50 1014.38 1014.09 1014.30 1014.05 1013.88 1012.51 1010.72 1009.11 1008.18 1008.41 1008.92 1009.42 1009.76 1009.96 1010.38 1010.90
1020.80 1019.63 1019.18 1018.33 1017.47 1016.85 1016.51 1015.27 1014.15 1013.78 1013.80 1013.29 1012.81 1012.83 1012.72 1013.04 1013.33 1013.62 1014.07 1014.68 1014.89 1014.97 1014.71 1014.47 1014.15 1014.30 1013.78 1013.64 1013.61 1013.39 1013.26 1013.61 1013.66 1012.31 1011.67 1009.88 1009.53 1007.55 1008.49 1009.09 1009.41 1009.92 1010.35 1010.77 1011.02
1020.14 1019.66 1019.13 1018.45 1018.07 1017.64 1016.81 1015.86 1015.28 1014.39 1013.69 1013.04 1013.03 1012.93 1012.72 1012.22 1012.22 1012.88 1013.50 1014.17 1014.16 1015.16 1015.24 1014.77 1014.41 1014.26 1013.75 1013.70 1013.69 1013.24 1012.69 1012.79 1012.69 1012.15 1011.65 1010.47 1009.15 1008.08 1007.45 1008.65 1009.43 1009.80 1010.34 1010.66 1010.92
1019.23 1019.44 1019.48 1018.32 1017.93 1017.59 1016.67 1016.31 1015.41 1015.29 1013.86 1013.81 1014.22 1013.34 1012.36 1011.69 1012.17 1012.90 1013.23 1013.30 1013.49 1013.98 1014.76 1015.17 1014.73 1014.77 1014.06 1013.97 1013.77 1012.09 1010.44 1011.03 1010.90 1010.49 1009.94 1009.79 1006.68 1007.38 1007.87 1008.88 1009.37 1009.51 1010.04 1010.10 1010.37
Wind_Speed
13 14 14 14 14 14 14 14 13 12 12 12 11 10 10 9 7 2 3 1 2 5 1 2 3 4 4 4 3 2 7 8 5 6 2 3 5 3 1 3 2 2 1 5 4
12 13 14 15 15 15 15 15 14 12 13 12 11 10 9 9 2 2 2 5 4 3 4 8 10 9 6 5 5 8 8 9 1 2 1 2 3 2 4 5 6 5 3 2 3
11 13 13 14 15 16 16 15 15 13 13 11 10 10 8 3 1 2 1 5 4 3 3 3 8 4 7 4 5 4 7 5 4 2 1 2 4 2 4 8 7 5 6 2 3
11 12 13 14 14 15 16 16 15 14 13 11 9 9 7 2 2 2 4 5 2 6 7 7 6 8 8 9 5 5 4 3 2 2 2 3 2 4 6 3 3 3 1 3 3
10 11 13 14 15 16 16 17 16 15 13 10 8 6 3 3 3 2 3 1 3 5 5 5 9 5 8 8 6 9 4 4 2 2 4 3 8 8 11 9 7 4 3 5 3
11 11 12 14 16 17 18 19 18 16 14 11 8 3 2 4 3 2 0 2 3 3 4 4 3 2 4 5 8 4 5 2 2 2 1 4 4 2 2 1 5 9 7 5 7
18 17 15 15 17 19 20 20 19 16 14 10 5 2 2 4 1 2 2 2 1 3 5 2 4 1 5 6 2 4 6 3 3 2 2 2 9 11 7 3 7 7 4 6 6
19 17 18 19 18 20 21 21 18 12 6 4 4 2 4 1 1 3 1 3 3 4 5 5 5 7 2 5 3 4 3 6 5 1 2 4 5 3 5 9 10 7 3 3 3
19 19 22 21 20 20 23 21 11 4 4 6 3 3 2 3 2 2 2 4 5 4 5 5 3 4 4 5 4 5 4 7 4 1 1 6 6 2 8 8 11 12 8 3 5
19 19 21 22 22 19 24 15 3 3 4 2 0 2 2 3 3 2 1 2 3 6 4 2 3 4 4 7 5 6 6 4 4 4 4 9 19 13 11 12 14 13 8 7 9
21 21 22 22 22 20 14 3 3 1 1 5 1 1 2 2 1 2 1 4 3 2 6 2 6 9 12 9 1 1 2 2 2 3 5 8 16 16 13 15 17 16 11 11 12
23 23 23 24 25 19 5 4 2 1 9 4 6 3 1 2 3 2 3 5 4 5 5 4 10 2 7 5 4 3 2 3 2 2 4 7 21 15 5 7 11 15 14 14 14
22 22 22 25 25 3 4 2 4 2 5 2 4 3 2 5 3 7 6 4 4 7 10 5 3 8 3 4 5 2 3 2 1 5 1 9 9 4 3 3 5 8 10 12 14
21 22 23 27 3 5 3 3 3 2 5 4 4 2 3 1 3 1 1 1 2 8 7 2 6 5 4 4 4 4 3 5 2 4 3 4 7 4 3 5 7 9 12 13 12
19 20 21 19 9 3 2 3 3 4 6 4 3 1 3 3 4 2 1 1 5 6 5 4 10 7 4 0 3 2 3 4 2 1 4 4 3 4 2 8 12 12 12 13 11
19 20 20 9 4 3 1 1 2 2 9 2 3 4 4 3 3 3 2 4 2 4 3 4 2 1 2 5 3 12 4 3 2 1 4 4 3 5 5 2 4 7 13 13 12
19 20 17 5 4 1 1 3 2 7 2 3 3 4 3 4 4 5 5 5 5 6 6 3 4 2 3 6 4 2 3 1 3 2 3 3 4 11 3 3 2 4 8 13 11
24 20 9 7 5 1 2 2 10 2 5 1 3 5 5 4 2 4 6 7 6 4 4 7 6 10 6 2 3 7 3 3 5 3 1 2 8 3 1 1 4 5 3 8 11
22 5 5 4 5 2 3 7 7 7 5 8 3 3 4 3 3 4 6 5 7 8 4 6 3 3 2 1 2 6 6 2 7 2 2 3 6 13 7 12 11 9 7 11 12
6 6 5 6 4 3 5 17 7 4 5 3 7 3 6 6 7 5 6 3 3 7 1 3 3 0 4 2 5 2 5 4 1 5 5 4 6 5 6 9 8 9 13 12 12
4 6 2 3 1 4 13 10 11 9 5 6 5 4 3 6 6 6 3 2 4 3 2 3 2 4 4 10 10 5 4 0 0 2 3 2 5 6 7 7 7 7 8 9 12
3 4 3 2 5 3 12 5 4 2 4 8 2 4 8 7 7 5 8 2 5 6 6 4 2 5 3 2 2 2 4 7 4 6 0 2 8 3 6 5 4 6 7 8 9
4 4 1 1 6 10 5 7 6 10 6 4 7 7 3 6 4 7 5 2 5 7 7 6 4 3 2 3 0 7 7 4 4 1 8 6 5 2 4 6 8 9 8 7 7
3 5 3 3 6 8 7 10 10 2 9 5 2 3 4 5 3 3 6 3 2 3 6 5 3 4 7 2 4 7 11 12 4 5 7 10 6 9 8 8 7 10 11 8 6
4 4 1 3 5 12 12 9 11 12 4 5 8 11 8 7 5 5 4 3 1 2 3 5 6 4 4 3 2 3 6 14 12 9 10 1 12 16 3 7 7 5 5 6 7
4 4 2 4 7 11 11 6 12 19 10 18 6 6 11 14 10 10 9 6 6 6 5 3 2 1 3 1 3 7 9 14 17 9 12 16 22 14 16 5 6 6 6 7 6
4 3 5 10 11 9 13 15 12 11 8 3 10 15 17 17 4 2 2 3 8 11 9 7 7 5 5 4 6 13 14 17 10 10 12 15 23 4 5 5 6 6 7 8 6
Wind_Direction
351 352 351 346 344 344 340 338 333 332 329 330 326 321 322 332 318 175 223 13 272 284 134 147 170 160 178 133 152 187 223 233 237 205 163 139 208 157 352 227 203 176 252 84 50
345 343 344 345 341 341 337 333 328 333 328 327 323 315 320 334 280 206 150 286 283 266 195 173 162 162 158 146 155 215 228 220 237 214 236 170 254 195 228 191 205 189 152 120 6
342 338 338 341 340 337 334 329 326 329 322 320 320 314 319 315 261 174 215 299 280 234 201 176 147 168 167 173 168 188 232 203 199 214 236 253 250 261 257 241 239 203 155 199 306
333 335 334 335 335 334 331 327 323 320 315 314 316 314 323 241 242 144 324 297 277 166 159 151 155 156 176 185 167 208 219 192 153 173 207 238 305 257 237 274 99 104 296 257 216
319 326 327 328 328 328 329 324 320 317 311 306 306 316 279 227 249 98 342 339 117 142 172 161 165 157 182 185 159 217 179 201 169 204 253 283 256 270 257 243 235 247 212 198 228
330 321 319 321 324 324 324 321 321 314 305 292 290 326 236 255 108 22 299 90 94 147 151 165 178 151 124 176 206 176 165 186 221 195 220 266 247 258 182 291 235 215 214 232 265
7 353 327 321 322 325 321 320 317 311 297 271 251 220 226 262 129 37 104 90 107 167 142 101 122 167 144 147 126 131 176 202 194 200 215 295 241 232 247 219 159 173 228 283 285
1 360 355 338 321 322 319 320 317 317 324 217 185 195 251 126 153 32 109 97 95 73 90 110 103 98 39 122 112 190 220 212 134 215 150 244 266 172 165 188 192 189 312 290 290
356 360 353 345 329 321 319 321 318 321 88 147 145 226 246 130 207 107 339 135 113 81 76 96 66 80 145 185 179 201 229 214 173 109 283 226 273 150 182 209 223 234 285 260 171
353 359 353 341 333 325 321 320 351 106 83 136 231 257 158 207 148 119 65 143 116 123 108 100 93 173 175 202 210 189 210 205 226 151 233 237 258 252 215 220 243 255 258 211 182
356 357 353 343 338 335 332 330 320 154 81 225 205 271 124 90 196 143 137 138 121 153 174 135 210 213 208 215 316 139 193 226 134 110 279 254 274 270 252 237 238 248 222 194 184
353 354 348 341 334 331 316 37 62 18 301 234 242 257 172 205 152 181 188 163 184 178 144 155 232 160 113 137 160 171 192 219 153 134 298 312 292 289 257 241 235 222 197 182 175
345 346 346 341 325 345 333 38 116 177 258 267 204 191 190 170 230 170 188 161 175 177 193 209 94 139 138 165 177 191 232 188 300 303 157 310 266 211 172 204 180 176 173 178 184
344 340 341 343 290 338 301 96 133 208 288 215 190 171 137 173 220 37 229 187 143 199 167 221 129 165 170 210 210 227 114 108 39 312 290 7 293 244 188 220 205 169 178 180 183
341 338 339 334 296 282 0 111 142 255 288 83 144 76 140 195 124 93 356 184 179 148 196 135 165 167 187 335 190 99 104 91 95 69 303 133 235 255 202 218 204 191 191 190 189
335 341 331 334 303 286 273 137 240 218 244 150 129 165 164 179 142 141 103 52 93 123 55 77 15 201 82 77 59 137 108 77 82 193 238 113 220 267 203 182 134 197 202 199 197
328 328 325 297 273 10 349 244 225 232 31 192 166 176 217 174 162 174 162 177 189 154 184 145 157 136 157 117 114 197 158 234 234 200 246 125 212 265 249 202 173 154 199 201 197
334 321 298 265 286 241 236 182 220 192 239 177 169 142 188 160 215 169 150 206 212 281 137 169 222 180 157 243 195 184 234 219 235 218 24 133 234 240 302 344 248 262 251 200 201
340 305 279 263 198 176 189 207 234 172 169 165 123 165 194 183 194 202 221 227 161 187 174 182 178 94 42 114 256 159 214 77 104 70 261 235 266 264 247 249 234 240 210 206 207
334 300 277 324 168 183 216 227 216 193 139 173 192 184 183 182 195 210 185 171 189 190 146 174 135 218 141 159 68 208 139 133 250 197 231 231 271 244 205 195 196 203 219 222 218
318 309 357 345 204 213 222 224 224 223 173 201 213 164 219 181 195 190 233 159 138 144 154 161 249 126 164 204 182 146 204 112 355 280 228 272 244 203 205 181 195 212 218 228 229
316 273 37 46 240 225 235 224 270 227 221 244 202 172 191 174 183 229 225 232 155 155 166 175 114 167 193 68 320 242 221 191 212 187 249 324 267 173 229 205 212 229 232 236 239
286 264 317 214 256 226 272 273 269 239 205 210 231 227 132 184 222 205 199 45 165 164 180 173 208 131 197 195 131 218 194 171 105 105 193 182 241 125 217 229 231 243 246 246 255
287 275 269 196 260 291 250 237 250 248 237 236 191 129 165 176 206 231 206 171 11 179 157 153 181 240 256 37 120 194 195 188 182 180 159 228 290 255 227 233 223 244 257 263 248
203 270 287 280 258 254 258 307 252 227 210 270 207 220 201 201 197 216 182 177 124 312 174 191 209 190 249 247 244 244 188 188 207 218 208 220 206 251 199 226 243 236 256 261 255
253 256 256 237 307 299 283 270 298 294 256 230 253 212 201 216 198 199 178 187 193 160 174 299 185 139 277 132 240 261 230 197 222 243 257 269 278 257 268 243 262 256 242 239 233
216 228 251 268 252 268 273 275 261 303 293 313 343 281 223 224 219 136 188 142 170 165 159 176 161 163 228 54 337 274 222 204 205 205 208 220 239 125 238 214 248 258 241 261 241